Find KUIPER-00482

NORAD ID: 68877 Int'l Des: 2026-095P Owner: KUIP Country: US Constellation: amazon-leo operational
LEOCIRCULAR

現在のビュー

3D地球を読み込み中...

About KUIPER-00482

KUIPER-00482 (NORAD 68877) is a amazon-leo constellation satellite launched Apr 28, 2026 by KUIP of US. It operates in LEO, CIRCULAR orbit with a mass of 490.00 kg.

KUIPER-00482について

説明を読み込み中...

次回通過

Passes for default location (London). Set your location on the main map for personalized predictions.

高度履歴

Loading altitude history...

軌道要素

1 68877U 26095P 26169.25002315 -.01190140 00000-0 -60876-1 0 9996
2 68877 51.8909 237.8398 0001695 349.3555 66.6031 15.19106478 5903
Epoch: Jun 18, 2026 • Age: 6 hours

現在のステータス

高度 519.7 km
速度 7.60 km/s
衛星直下点 -32.89°S, 121.43°E
打ち上げ日 Apr 28, 2026
運用期間 0.1 years
タイプ internet

技術仕様

分類 Payload
質量 490.00 kg
乾燥質量 490.00 kg
総質量 490.00 kg
長さ 1.80 m
直径 0.70 m
スパン 5.00 m
形状 Box + 2 pan
製造者 KUIP
バスタイプ Kuiper
フェーズステータス In Orbit
所有者/国 KUIP/US

Most Searched